Weather History for Buckhannon, WV

Change the Weather History Date:

Sunday, March 25, 2012

  Actual Average (KEKN) Record (KEKN)
Temperature  
Mean Temperature 55 °F 43 °F  
Max Temperature 62 °F 55 °F 86 °F (1929)
Min Temperature 48 °F 31 °F 0 °F (1971)
Degree Days  
Heating Degree Days 10 22  
Month to date heating degree days 654  
Since 1 July heating degree days 4975  
Cooling Degree Days 0 0  
Month to date cooling degree days 0  
Year to date cooling degree days 0  
Growing Degree Days 5 (Base 50)    
Moisture  
Dew Point 53 °F    
Average Humidity 89    
Maximum Humidity 100    
Minimum Humidity 72    
Precipitation  
Precipitation 0.00 in 0.14 in 1.10 in (1984)
Month to date precipitation 3.16  
Year to date precipitation 9.49  
Snow  
Snow 0.00 in - - ()
Month to date snowfall  
Since 1 September snowfall  
Snow Depth -    
Sea Level Pressure  
Sea Level Pressure 29.84 in    
Wind  
Wind Speed 2 mph (North)    
Max Wind Speed 12 mph    
Max Gust Speed 17 mph    
Visibility 7 miles    
Events Fog , Rain    
T = Trace of Precipitation, MM = Missing Value Source: NWS Daily Summary

Daily Weather History Graph

Daily Weather History Graph

Search for Another Location

Airport:

Trip Planner

Search our weather history database for the weather conditions in past years. The results will help you decide how hot, cold, wet, or windy it might be!

Date:

Astronomy

Mar. 25, 2012 Rise Set
Actual Time 7:15 AM EDT 7:38 PM EDT
Civil Twilight 6:49 AM EDT 8:05 PM EDT
Nautical Twilight 6:17 AM EDT 8:36 PM EDT
Astronomical Twilight 5:45 AM EDT 9:08 PM EDT
Moon 8:29 AM EDT (3/25) 10:50 PM EDT (3/25)
Length of Visible Light 13h 15m
Length of Day
12h 22m
Waxing Crescent, 8% of the Moon is Illuminated
Mar 25
Waxing Crescent
Mar 30
First Quarter
Apr 6
Full
Apr 13
Last Quarter
Apr 21
New

Hourly Weather History & Observations

Time (EDT) Temp. Dew Point Humidity Pressure Visibility Wind Dir Wind Speed Gust Speed Precip Events Conditions
12:15 AM 51.8 °F 51.8 °F 100% 29.84 in 10.0 mi East 3.5 mph - N/A   Mostly Cloudy
12:35 AM 51.8 °F 51.8 °F 100% 29.84 in 10.0 mi Calm Calm - N/A   Partly Cloudy
12:55 AM 51.8 °F 51.8 °F 100% 29.84 in 10.0 mi Calm Calm - N/A   Clear
1:15 AM 51.8 °F 51.8 °F 100% 29.84 in 10.0 mi Calm Calm - N/A   Scattered Clouds
1:35 AM 51.8 °F 51.8 °F 100% 29.84 in 10.0 mi Calm Calm - N/A   Mostly Cloudy
1:55 AM 51.8 °F 51.8 °F 100% 29.83 in 0.8 mi Calm Calm - N/A   Mist
2:15 AM 51.8 °F 51.8 °F 100% 29.83 in 3.0 mi Calm Calm - N/A   Clear
2:35 AM 51.8 °F 51.8 °F 100% 29.83 in 2.5 mi East 4.6 mph - N/A   Partly Cloudy
2:55 AM 51.8 °F 51.8 °F 100% 29.83 in 10.0 mi East 3.5 mph - N/A   Mostly Cloudy
3:15 AM 50.0 °F 50.0 °F 100% 29.82 in 0.8 mi Calm Calm - N/A   Mostly Cloudy
3:35 AM 51.8 °F 51.8 °F 100% 29.82 in 10.0 mi Calm Calm - N/A   Partly Cloudy
3:55 AM 51.8 °F 51.8 °F 100% 29.81 in 3.0 mi Calm Calm - N/A   Clear
4:15 AM 50.0 °F 50.0 °F 100% 29.81 in 5.0 mi Calm Calm - N/A   Partly Cloudy
4:35 AM 50.0 °F 50.0 °F 100% 29.80 in 5.0 mi Calm Calm - N/A   Scattered Clouds
4:55 AM 50.0 °F 50.0 °F 100% 29.80 in 0.8 mi Calm Calm - N/A   Mostly Cloudy
5:15 AM 50.0 °F 50.0 °F 100% 29.80 in 1.2 mi Calm Calm - N/A   Clear
5:35 AM 48.2 °F - N/A% 29.81 in 0.5 mi NW 3.5 mph - N/A Fog Fog
5:55 AM 48.2 °F - N/A% 29.81 in 1.5 mi Calm Calm - N/A   Clear
6:15 AM 48.2 °F - N/A% 29.81 in 0.2 mi Calm Calm - N/A Fog Fog
6:35 AM 48.2 °F - N/A% 29.82 in 0.5 mi Calm Calm - N/A Fog Fog
6:55 AM 48.2 °F - N/A% 29.82 in 0.2 mi Calm Calm - N/A Fog Fog
7:15 AM 48.2 °F - N/A% 29.82 in 0.2 mi Calm Calm - N/A Fog Fog
7:35 AM 48.2 °F - N/A% 29.82 in 0.2 mi Calm Calm - N/A Fog Fog
7:55 AM 48.2 °F - N/A% 29.83 in 0.2 mi Calm Calm - N/A Fog Fog
8:15 AM 48.2 °F - N/A% 29.84 in 0.2 mi Calm Calm - N/A Fog Fog
8:35 AM 48.2 °F - N/A% 29.85 in 0.2 mi Calm Calm - N/A Fog Fog
8:55 AM 50.0 °F - N/A% 29.86 in 0.2 mi Calm Calm - N/A Fog Fog
9:15 AM 51.8 °F - N/A% 29.86 in 10.0 mi Calm Calm - N/A   Mostly Cloudy
9:35 AM 51.8 °F - N/A% 29.86 in 10.0 mi Calm Calm - N/A   Scattered Clouds
9:55 AM 51.8 °F - N/A% 29.86 in 10.0 mi Calm Calm - N/A   Partly Cloudy
10:15 AM 53.6 °F - N/A% 29.86 in 10.0 mi Calm Calm - N/A   Partly Cloudy
10:35 AM 57.2 °F 55.4 °F 94% 29.86 in 10.0 mi Calm Calm - N/A   Scattered Clouds
10:55 AM 57.2 °F 55.4 °F 94% 29.86 in 10.0 mi Calm Calm - N/A   Scattered Clouds
11:15 AM 57.2 °F 55.4 °F 94% 29.86 in 10.0 mi North 4.6 mph - N/A   Mostly Cloudy
11:35 AM 57.2 °F 55.4 °F 94% 29.87 in 10.0 mi North 8.1 mph - N/A   Overcast
11:55 AM 59.0 °F 55.4 °F 88% 29.87 in 10.0 mi North 5.8 mph - N/A   Overcast
12:15 PM 60.8 °F 53.6 °F 77% 29.87 in 10.0 mi North 9.2 mph - N/A   Overcast
12:35 PM 60.8 °F 53.6 °F 77% 29.86 in 10.0 mi North 11.5 mph - N/A   Overcast
12:55 PM 62.6 °F 55.4 °F 77% 29.86 in 10.0 mi North 8.1 mph - N/A   Partly Cloudy
1:15 PM 60.8 °F 53.6 °F 77% 29.86 in 10.0 mi North 10.4 mph - N/A   Mostly Cloudy
1:35 PM 60.8 °F 53.6 °F 77% 29.86 in 10.0 mi NNE 8.1 mph - N/A   Overcast
1:55 PM 60.8 °F 53.6 °F 77% 29.86 in 10.0 mi North 6.9 mph - N/A   Mostly Cloudy
2:15 PM 60.8 °F 53.6 °F 77% 29.86 in 10.0 mi North 10.4 mph 17.3 mph N/A   Overcast
2:35 PM 60.8 °F 53.6 °F 77% 29.85 in 10.0 mi North 8.1 mph - N/A   Overcast
2:55 PM 60.8 °F 53.6 °F 77% 29.85 in 10.0 mi North 8.1 mph - N/A   Mostly Cloudy
3:15 PM 60.8 °F 53.6 °F 77% 29.86 in 10.0 mi North 8.1 mph - N/A   Scattered Clouds
3:35 PM 60.8 °F 53.6 °F 77% 29.86 in 10.0 mi NNE 5.8 mph - N/A   Partly Cloudy
3:55 PM 60.8 °F 53.6 °F 77% 29.85 in 10.0 mi NNE 5.8 mph - N/A   Mostly Cloudy
4:15 PM 62.6 °F 53.6 °F 72% 29.85 in 10.0 mi North 4.6 mph - N/A   Mostly Cloudy
4:35 PM 60.8 °F 53.6 °F 77% 29.86 in 8.0 mi North 5.8 mph - N/A Rain Light Rain
4:55 PM 60.8 °F 53.6 °F 77% 29.86 in 10.0 mi North 4.6 mph - N/A   Mostly Cloudy
5:15 PM 60.8 °F 53.6 °F 77% 29.86 in 10.0 mi Calm Calm - N/A   Mostly Cloudy
5:35 PM 60.8 °F 51.8 °F 72% 29.86 in 10.0 mi Calm Calm - N/A   Mostly Cloudy
5:55 PM 60.8 °F 51.8 °F 72% 29.86 in 10.0 mi NNW 4.6 mph - N/A   Overcast
6:15 PM 60.8 °F 51.8 °F 72% 29.86 in 10.0 mi Calm Calm - N/A   Overcast
6:35 PM 60.8 °F 51.8 °F 72% 29.87 in 10.0 mi NNW 9.2 mph - N/A   Overcast
6:55 PM 60.8 °F 51.8 °F 72% 29.87 in 10.0 mi North 9.2 mph - N/A   Overcast
7:15 PM 60.8 °F 51.8 °F 72% 29.88 in 10.0 mi NNW 6.9 mph - N/A   Overcast
7:35 PM 60.8 °F 51.8 °F 72% 29.88 in 10.0 mi NNW 10.4 mph - N/A   Overcast
7:55 PM 60.8 °F 51.8 °F 72% 29.89 in 10.0 mi North 6.9 mph - N/A   Overcast
8:15 PM 60.8 °F 51.8 °F 72% 29.89 in 10.0 mi NNW 11.5 mph - N/A   Overcast
8:35 PM 59.0 °F 51.8 °F 77% 29.90 in 10.0 mi North 11.5 mph 16.1 mph N/A   Overcast
8:55 PM 59.0 °F 51.8 °F 77% 29.91 in 10.0 mi North 12.7 mph 16.1 mph N/A   Overcast
9:15 PM 57.2 °F 51.8 °F 82% 29.92 in 10.0 mi North 11.5 mph 16.1 mph N/A   Mostly Cloudy
9:35 PM 57.2 °F 51.8 °F 82% 29.93 in 10.0 mi North 9.2 mph 16.1 mph N/A   Overcast
9:55 PM 57.2 °F 51.8 °F 82% 29.93 in 10.0 mi North 5.8 mph - N/A   Overcast
10:15 PM 57.2 °F 51.8 °F 82% 29.94 in 10.0 mi North 10.4 mph - N/A   Overcast
10:35 PM 57.2 °F 51.8 °F 82% 29.94 in 10.0 mi NNW 4.6 mph - N/A   Overcast
10:55 PM 57.2 °F 51.8 °F 82% 29.95 in 10.0 mi NNW 8.1 mph - N/A   Overcast
11:15 PM 57.2 °F 51.8 °F 82% 29.95 in 10.0 mi NNW 10.4 mph - N/A   Overcast
11:35 PM 57.2 °F 51.8 °F 82% 29.95 in 10.0 mi North 5.8 mph - N/A   Mostly Cloudy
11:55 PM 55.4 °F 51.8 °F 88% 29.96 in 10.0 mi North 9.2 mph - N/A   Overcast